Skip Page Navigation
NASA JPL Caltech
NASA Logo - Jet Propulsion Laboratory + View the NASA Portal
+ Near-Earth Object (NEO) Program
Search JPL
JPL Home Earth Solar System Stars & Galaxies Technology
JPL Solar System Dynamics
BODIES ORBITS EPHEMERIDES TOOLS PHYSICAL DATA DISCOVERY FAQ SITE MAP
JPL Small-Body Database Browser
Search: [ help ]  
6115 Martinduncan (1984 SR2)
Classification: Main-belt Asteroid          SPK-ID: 2006115
Ephemeris | Orbit Diagram | Orbital Elements | Physical Parameters | Discovery Circumstances ]

[ hide orbit diagram ]
Orbit Diagram
Note: Make sure you have Java enabled on your browser to see the applet. This applet is provided as a 3D orbit visualization tool. The applet was implemented using 2-body methods, and hence should not be used for determining accurate long-term trajectories (over several years or decades) or planetary encounter circumstances. For accurate long-term ephemerides, please instead use our Horizons system.
Orbit Viewer

Additional Notes: the orbits shown in the applet are color coded. The planets are white lines, and the asteroid/comet is a blue line. The bright white line indicates the portion of the orbit that is above the ecliptic plane, and the darker portion is below the ecliptic plane. Likewise for the asteroid/comet orbit, the light blue indicates the portion above the ecliptic plane, and the dark blue the portion below the ecliptic plane.

Orbit Viewer applet originally written and kindly provided by Osamu Ajiki (AstroArts), and further modified by Ron Baalke (JPL).


Orbital Elements at Epoch 2456400.5 (2013-Apr-18.0) TDB
Reference: JPL 1 (heliocentric ecliptic J2000)
 Element Value Uncertainty (1-sigma)   Units 
e .1549168353155628 6.8983e-08  
a 2.226016398739119 1.4211e-08 AU
q 1.881168982885909 1.5322e-07 AU
i 4.89299480183044 8.4944e-06 deg
node 316.1954507007006 7.8009e-05 deg
peri 66.74616074352832 8.3425e-05 deg
M 199.627877293206 3.1028e-05 deg
tp 2456940.902491708359
(2014-Oct-10.40249171)
0.00010706 JED
period 1213.084255115167
3.32
1.1617e-05
3.181e-08
d
yr
n .2967642177218947 2.8419e-09 deg/d
Q 2.570863814592329 1.6413e-08 AU
  Orbit Determination Parameters
   # obs. used (total)      803  
   data-arc span      10426 days (28.54 yr)  
   first obs. used      1984-09-25  
   last obs. used      2013-04-12  
   planetary ephem.      DE405  
   SB-pert. ephem.      SB405-CPV-2  
   condition code      0  
   fit RMS      .59764  
   data source      ORB  
   producer      Otto Matic  
   solution date      2013-Apr-29 13:20:00  

Additional Information
 Earth MOID = .889744 AU 
 T_jup = 3.625 
[ show covariance matrix ]

Ephemeris | Orbit Diagram | Orbital Elements | Physical Parameters | Discovery Circumstances ]

Physical Parameter Table
Parameter Symbol Value Units Sigma Reference Notes
absolute magnitude H 14.1 mag n/a PDS3 (MPC 24090)  

6115 Martinduncan (1984 SR2)          Discovered 1984-Sep-25 by Skiff, B. A. at Flagstaff
Reference: DISCOVERY.DBLast Updated: 2003-08-29

Alternate Designations
 1984 SR2 = 1989 CF8 
Ephemeris | Orbit Diagram | Orbital Elements | Physical Parameters | Discovery Circumstances ]
ABOUT SSD CREDITS/AWARDS PRIVACY/COPYRIGHT GLOSSARY LINKS
FirstGov 2013-May-18 22:51 UT
(server date/time)  
NASA Home Page
Site Manager:   Donald K. Yeomans
Webmaster  Alan B. Chamberlin